| time (UTC) | temp C | wind direction | speed KPH | gust KPH | rain 1hr cm | rain 24hr cm | rain mn cm | humidity % | barometer mb |
| 20260505224042 | 11 | 315 | 12.9 | 16.1 | 0.00 | 0.00 | 0.00 | 36 | 1008.3 |
| 20260505223542 | 11 | 298 | 12.9 | 17.7 | 0.00 | 0.00 | 0.00 | 37 | 1008.3 |
| 20260505223036 | 11 | 308 | 14.5 | 17.7 | 0.00 | 0.00 | 0.00 | 36 | 1008.3 |
| 20260505222539 | 11 | 300 | 12.9 | 19.3 | 0.00 | 0.00 | 0.00 | 36 | 1008.2 |
| 20260505222042 | 11 | 323 | 12.9 | 19.3 | 0.00 | 0.00 | 0.00 | 37 | 1008.2 |
| 20260505221543 | 11 | 316 | 9.7 | 14.5 | 0.00 | 0.00 | 0.00 | 36 | 1008.2 |
| 20260505221042 | 11 | 306 | 9.7 | 14.5 | 0.00 | 0.00 | 0.00 | 39 | 1008.1 |
| 20260505220538 | 11 | 296 | 11.3 | 17.7 | 0.00 | 0.00 | 0.00 | 39 | 1008.1 |
| 20260505220041 | 11 | 288 | 11.3 | 17.7 | 0.00 | 0.00 | 0.00 | 37 | 1008.1 |
| 20260505215540 | 11 | 306 | 12.9 | 20.9 | 0.00 | 0.00 | 0.00 | 37 | 1008.2 |
| 20260505215040 | 12 | 309 | 11.3 | 20.9 | 0.00 | 0.00 | 0.00 | 36 | 1008.2 |
| 20260505214807 | 12 | 286 | 9.7 | 19.3 | 0.00 | 0.00 | 0.00 | 35 | 1008.1 |
| 20260505214610 | 12 | 307 | 8.0 | 16.1 | 0.00 | 0.00 | 0.00 | 35 | 1008.1 |
| 20260505213540 | 12 | 293 | 14.5 | 20.9 | 0.00 | 0.00 | 0.00 | 37 | 1008.1 |
| 20260505213043 | 13 | 313 | 14.5 | 22.5 | 0.00 | 0.00 | 0.00 | 36 | 1008.2 |
| 20260505212545 | 13 | 301 | 14.5 | 22.5 | 0.00 | 0.00 | 0.00 | 35 | 1008.1 |
| 20260505212043 | 13 | 310 | 11.3 | 22.5 | 0.00 | 0.00 | 0.00 | 36 | 1008.1 |
| 20260505211733 | 12 | 311 | 14.5 | 22.5 | 0.00 | 0.00 | 0.00 | 36 | 1008.2 |
| 20260505211651 | 12 | 290 | 16.1 | 24.1 | 0.00 | 0.00 | 0.00 | 36 | 1008.2 |
| 20260505211553 | 12 | 292 | 9.7 | 16.1 | 0.00 | 0.00 | 0.00 | 40 | 1008.2 |
| 20260505211228 | 12 | 292 | 11.3 | 16.1 | 0.00 | 0.00 | 0.00 | 41 | 1008.1 |
| 20260505210645 | 12 | 277 | 14.5 | 24.1 | 0.00 | 0.00 | 0.00 | 37 | 1008.3 |
| 20260505205034 | 12 | 298 | 14.5 | 20.9 | 0.00 | 0.00 | 0.00 | 39 | 1008.2 |
| 20260505204531 | 12 | 296 | 14.5 | 20.9 | 0.00 | 0.00 | 0.00 | 36 | 1008.2 |
| 20260505204038 | 12 | 301 | 11.3 | 20.9 | 0.00 | 0.00 | 0.00 | 36 | 1008.2 |
| 20260505203532 | 12 | 297 | 11.3 | 20.9 | 0.00 | 0.00 | 0.00 | 38 | 1008.3 |
| 20260505203032 | 12 | 326 | 11.3 | 19.3 | 0.00 | 0.00 | 0.00 | 38 | 1008.4 |
| 20260505202530 | 12 | 299 | 9.7 | 17.7 | 0.00 | 0.00 | 0.00 | 36 | 1008.3 |
| 20260505202029 | 12 | 271 | 9.7 | 17.7 | 0.00 | 0.00 | 0.00 | 39 | 1008.3 |
| 20260505201531 | 11 | 300 | 9.7 | 17.7 | 0.00 | 0.00 | 0.00 | 43 | 1008.3 |
| 20260505201030 | 11 | 302 | 14.5 | 22.5 | 0.00 | 0.00 | 0.00 | 36 | 1008.3 |
| 20260505200749 | 12 | 301 | 14.5 | 22.5 | 0.00 | 0.00 | 0.00 | 34 | 1008.3 |
| 20260505200608 | 11 | 292 | 14.5 | 22.5 | 0.00 | 0.00 | 0.00 | 37 | 1008.4 |
| 20260505195739 | 12 | 306 | 14.5 | 25.7 | 0.00 | 0.00 | 0.00 | 36 | 1008.4 |
| 20260505195604 | 11 | 309 | 16.1 | 25.7 | 0.00 | 0.00 | 0.00 | 36 | 1008.4 |
| 20260505194531 | 12 | 304 | 11.3 | 20.9 | 0.00 | 0.00 | 0.00 | 36 | 1008.4 |
| 20260505194237 | 12 | 305 | 12.9 | 20.9 | 0.00 | 0.00 | 0.00 | 37 | 1008.3 |
| 20260505194108 | 12 | 295 | 12.9 | 20.9 | 0.00 | 0.00 | 0.00 | 38 | 1008.5 |
| 20260505193249 | 12 | 292 | 12.9 | 20.9 | 0.00 | 0.00 | 0.00 | 40 | 1008.5 |
| 20260505193101 | 12 | 290 | 12.9 | 20.9 | 0.00 | 0.00 | 0.00 | 39 | 1008.4 |
| 20260505192034 | 11 | 294 | 14.5 | 20.9 | 0.00 | 0.00 | 0.00 | 39 | 1008.4 |
| 20260505191534 | 11 | 302 | 12.9 | 22.5 | 0.00 | 0.00 | 0.00 | 38 | 1008.5 |
| 20260505191231 | 12 | 312 | 16.1 | 20.9 | 0.00 | 0.00 | 0.00 | 37 | 1008.5 |
| 20260505191102 | 12 | 289 | 14.5 | 22.5 | 0.00 | 0.00 | 0.00 | 41 | 1008.4 |
| 20260505190029 | 12 | 306 | 16.1 | 22.5 | 0.00 | 0.00 | 0.00 | 36 | 1008.5 |
| 20260505185533 | 12 | 299 | 11.3 | 22.5 | 0.00 | 0.00 | 0.00 | 34 | 1008.5 |
| 20260505185029 | 12 | 305 | 8.0 | 14.5 | 0.00 | 0.00 | 0.00 | 37 | 1008.5 |
| 20260505184745 | 13 | 265 | 9.7 | 19.3 | 0.00 | 0.00 | 0.00 | 34 | 1008.5 |
| 20260505184602 | 13 | 297 | 8.0 | 14.5 | 0.00 | 0.00 | 0.00 | 36 | 1008.5 |
| 20260505183533 | 13 | 277 | 11.3 | 20.9 | 0.00 | 0.00 | 0.00 | 38 | 1008.5 |
| 20260505183029 | 13 | 294 | 11.3 | 20.9 | 0.00 | 0.00 | 0.00 | 32 | 1008.4 |
| 20260505182800 | 13 | 256 | 9.7 | 16.1 | 0.00 | 0.00 | 0.00 | 35 | 1008.2 |
| 20260505182606 | 13 | 298 | 9.7 | 16.1 | 0.00 | 0.00 | 0.00 | 39 | 1008.3 |
| 20260505181756 | 13 | 294 | 12.9 | 19.3 | 0.00 | 0.00 | 0.00 | 38 | 1008.2 |
| 20260505181609 | 13 | 297 | 9.7 | 17.7 | 0.00 | 0.00 | 0.00 | 39 | 1008.3 |
| 20260505180742 | 12 | 308 | 8.0 | 16.1 | 0.00 | 0.00 | 0.00 | 39 | 1008.3 |
| 20260505180654 | 12 | 286 | 8.0 | 22.5 | 0.00 | 0.00 | 0.00 | 38 | 1008.3 |
| 20260505180550 | 12 | 306 | 12.9 | 19.3 | 0.00 | 0.00 | 0.00 | 39 | 1008.3 |
| 20260505180231 | 12 | 307 | 12.9 | 19.3 | 0.00 | 0.00 | 0.00 | 40 | 1008.3 |
| 20260505175634 | 12 | 291 | 11.3 | 22.5 | 0.00 | 0.00 | 0.00 | 38 | 1008.3 |
| 20260505174256 | 11 | 304 | 12.9 | 19.3 | 0.00 | 0.00 | 0.00 | 38 | 1008.3 |
| 20260505174108 | 12 | 280 | 11.3 | 19.3 | 0.00 | 0.00 | 0.00 | 38 | 1008.4 |
| 20260505173033 | 11 | 294 | 11.3 | 19.3 | 0.00 | 0.00 | 0.00 | 37 | 1008.3 |
| 20260505172529 | 11 | 239 | 8.0 | 17.7 | 0.00 | 0.00 | 0.00 | 40 | 1008.2 |
| 20260505172031 | 11 | 313 | 6.4 | 17.7 | 0.00 | 0.00 | 0.00 | 39 | 1008.2 |
| 20260505171529 | 11 | 280 | 11.3 | 20.9 | 0.00 | 0.00 | 0.00 | 39 | 1008.3 |
| 20260505171029 | 11 | 300 | 12.9 | 20.9 | 0.00 | 0.00 | 0.00 | 36 | 1008.3 |
| 20260505170530 | 11 | 355 | 14.5 | 24.1 | 0.00 | 0.00 | 0.00 | 37 | 1008.3 |
| 20260505170258 | 11 | 316 | 12.9 | 24.1 | 0.00 | 0.00 | 0.00 | 34 | 1008.2 |
| 20260505170110 | 11 | 309 | 17.7 | 24.1 | 0.00 | 0.00 | 0.00 | 37 | 1008.3 |
| 20260505165250 | 11 | 254 | 9.7 | 22.5 | 0.00 | 0.00 | 0.00 | 35 | 1008.4 |
| 20260505165108 | 11 | 302 | 8.0 | 19.3 | 0.00 | 0.00 | 0.00 | 37 | 1008.4 |
| 20260505164032 | 11 | 292 | 11.3 | 25.7 | 0.00 | 0.00 | 0.00 | 38 | 1008.4 |
| 20260505163530 | 11 | 311 | 8.0 | 25.7 | 0.00 | 0.00 | 0.00 | 35 | 1008.4 |
| 20260505163028 | 11 | 302 | 8.0 | 14.5 | 0.00 | 0.00 | 0.00 | 38 | 1008.4 |
| 20260505162529 | 11 | 294 | 9.7 | 16.1 | 0.00 | 0.00 | 0.00 | 37 | 1008.4 |
| 20260505162032 | 11 | 309 | 9.7 | 16.1 | 0.00 | 0.00 | 0.00 | 38 | 1008.4 |
| 20260505161533 | 11 | 274 | 8.0 | 14.5 | 0.00 | 0.00 | 0.00 | 37 | 1008.3 |
| 20260505161028 | 11 | 309 | 9.7 | 16.1 | 0.00 | 0.00 | 0.00 | 36 | 1008.3 |
| 20260505160530 | 11 | 320 | 11.3 | 16.1 | 0.00 | 0.00 | 0.00 | 33 | 1008.3 |
| 20260505153036 | 11 | 307 | 12.9 | 20.9 | 0.00 | 0.00 | 0.00 | 35 | 1008.1 |
| 20260505152530 | 11 | 316 | 12.9 | 20.9 | 0.00 | 0.00 | 0.00 | 35 | 1008.1 |
| 20260505152030 | 11 | 311 | 11.3 | 20.9 | 0.00 | 0.00 | 0.00 | 35 | 1008.1 |
| 20260505151531 | 11 | 263 | 12.9 | 20.9 | 0.00 | 0.00 | 0.00 | 34 | 1008.1 |
| 20260505151035 | 11 | 301 | 17.7 | 22.5 | 0.00 | 0.00 | 0.00 | 35 | 1008.2 |
| 20260505150529 | 11 | 318 | 16.1 | 22.5 | 0.00 | 0.00 | 0.00 | 35 | 1008.1 |
| 20260505140503 | 10 | 306 | 9.7 | 12.9 | 0.00 | 0.00 | 0.00 | 44 | 1008.2 |
| 20260505125003 | 8 | 294 | 6.4 | 11.3 | 0.00 | 0.00 | 0.00 | 53 | 1007.9 |
| 20260505124459 | 8 | 306 | 6.4 | 11.3 | 0.00 | 0.00 | 0.00 | 53 | 1007.8 |
| 20260505123959 | 8 | 305 | 6.4 | 11.3 | 0.00 | 0.00 | 0.00 | 54 | 1007.6 |
| 20260505123458 | 8 | 308 | 6.4 | 11.3 | 0.00 | 0.00 | 0.00 | 56 | 1007.6 |
| 20260505123318 | 7 | 298 | 4.8 | 6.4 | 0.00 | 0.00 | 0.00 | 56 | 1007.5 |
| 20260505122456 | 7 | 299 | 4.8 | 6.4 | 0.00 | 0.00 | 0.00 | 57 | 1007.4 |
| 20260505121958 | 7 | 299 | 4.8 | 6.4 | 0.00 | 0.00 | 0.00 | 58 | 1007.3 |
| 20260505121456 | 7 | 300 | 4.8 | 6.4 | 0.00 | 0.00 | 0.00 | 60 | 1007.3 |
| 20260505121311 | 6 | 300 | 3.2 | 4.8 | 0.00 | 0.00 | 0.00 | 62 | 1007.2 |
| 20260505120757 | 6 | 300 | 3.2 | 4.8 | 0.00 | 0.00 | 0.00 | 63 | 1007.1 |
| 20260505120255 | 6 | 300 | 3.2 | 4.8 | 0.00 | 0.00 | 0.00 | 64 | 1006.9 |
| 20260505115450 | 5 | 300 | 3.2 | 4.8 | 0.00 | 0.00 | 0.00 | 64 | 1006.7 |
| 20260505114950 | 5 | 300 | 3.2 | 4.8 | 0.00 | 0.00 | 0.00 | 64 | 1006.7 |
| 20260505114451 | 5 | 300 | 4.8 | 6.4 | 0.00 | 0.00 | 0.00 | 64 | 1006.5 |
| 20260505113951 | 4 | 300 | 4.8 | 6.4 | 0.00 | 0.00 | 0.00 | 64 | 1006.3 |
| 20260505113450 | 4 | 300 | 4.8 | 6.4 | 0.00 | 0.00 | 0.00 | 65 | 1006.3 |
| 20260505112948 | 3 | 300 | 3.2 | 6.4 | 0.00 | 0.00 | 0.00 | 65 | 1006.2 |
| 20260505112447 | 3 | 300 | 3.2 | 4.8 | 0.00 | 0.00 | 0.00 | 65 | 1006.2 |
| 20260505111946 | 3 | 300 | 3.2 | 3.2 | 0.00 | 0.00 | 0.00 | 68 | 1006.0 |
| 20260505111446 | 3 | 300 | 3.2 | 3.2 | 0.00 | 0.00 | 0.00 | 67 | 1006.2 |
| 20260505111253 | 4 | 300 | 3.2 | 4.8 | 0.00 | 0.00 | 0.00 | 66 | 1006.2 |
| 20260505110444 | 4 | 300 | 3.2 | 4.8 | 0.00 | 0.00 | 0.00 | 65 | 1006.3 |
| 20260505101433 | 5 | 297 | 3.2 | 4.8 | 0.00 | 0.00 | 0.00 | 62 | 1005.7 |
| 20260505100930 | 5 | 297 | 3.2 | 4.8 | 0.00 | 0.00 | 0.00 | 62 | 1005.6 |
| 20260505100431 | 5 | 297 | 3.2 | 4.8 | 0.00 | 0.00 | 0.00 | 62 | 1005.4 |
| 20260505095929 | 5 | 297 | 3.2 | 6.4 | 0.00 | 0.00 | 0.00 | 61 | 1005.3 |
| 20260505095430 | 5 | 299 | 4.8 | 6.4 | 0.00 | 0.00 | 0.00 | 62 | 1005.3 |
| 20260505094929 | 5 | 299 | 4.8 | 6.4 | 0.00 | 0.00 | 0.00 | 62 | 1005.2 |
| 20260505094739 | 5 | 297 | 4.8 | 6.4 | 0.00 | 0.00 | 0.00 | 63 | 1005.2 |
| 20260505094039 | 5 | 295 | 4.8 | 6.4 | 0.00 | 0.00 | 0.00 | 64 | 1005.0 |
| 20260505094014 | 5 | 295 | 4.8 | 6.4 | 0.00 | 0.00 | 0.00 | 64 | 1005.1 |
| 20260505092928 | 5 | 289 | 4.8 | 6.4 | 0.00 | 0.00 | 0.00 | 65 | 1005.0 |
| 20260505092756 | 5 | 286 | 3.2 | 6.4 | 0.00 | 0.00 | 0.00 | 65 | 1005.0 |
| 20260505091929 | 5 | 304 | 3.2 | 6.4 | 0.00 | 0.00 | 0.00 | 64 | 1004.9 |
| 20260505091739 | 5 | 304 | 3.2 | 6.4 | 0.00 | 0.00 | 0.00 | 64 | 1004.9 |
| 20260505090931 | 5 | 304 | 3.2 | 6.4 | 0.00 | 0.00 | 0.00 | 64 | 1004.8 |
| 20260505090431 | 5 | 304 | 3.2 | 6.4 | 0.00 | 0.00 | 0.00 | 63 | 1004.8 |
| 20260505085932 | 5 | 304 | 3.2 | 4.8 | 0.00 | 0.00 | 0.00 | 63 | 1004.7 |
| 20260505085429 | 5 | 304 | 3.2 | 4.8 | 0.00 | 0.00 | 0.00 | 63 | 1004.7 |
| 20260505084929 | 5 | 305 | 3.2 | 4.8 | 0.00 | 0.00 | 0.00 | 62 | 1004.6 |
| 20260505084429 | 5 | 305 | 3.2 | 4.8 | 0.00 | 0.00 | 0.00 | 62 | 1004.5 |
| 20260505084235 | 5 | 305 | 3.2 | 4.8 | 0.00 | 0.00 | 0.00 | 62 | 1004.4 |
| 20260505083429 | 5 | 305 | 3.2 | 6.4 | 0.00 | 0.00 | 0.00 | 62 | 1004.4 |
| 20260505082929 | 5 | 305 | 3.2 | 6.4 | 0.00 | 0.00 | 0.00 | 61 | 1004.3 |
| 20260505082429 | 5 | 309 | 3.2 | 6.4 | 0.00 | 0.00 | 0.00 | 61 | 1004.2 |
| 20260505081935 | 5 | 309 | 3.2 | 6.4 | 0.00 | 0.00 | 0.00 | 61 | 1004.1 |
| 20260505081452 | 6 | 305 | 3.2 | 4.8 | 0.00 | 0.00 | 0.00 | 59 | 1004.0 |
| 20260505081431 | 5 | 305 | 3.2 | 4.8 | 0.00 | 0.00 | 0.00 | 61 | 1004.1 |
| 20260505081418 | 6 | 305 | 3.2 | 4.8 | 0.00 | 0.00 | 0.00 | 60 | 1004.1 |
| 20260505081100 | 5 | 305 | 3.2 | 4.8 | 0.00 | 0.00 | 0.00 | 61 | 1004.1 |
| 20260505080003 | 6 | 305 | 3.2 | 4.8 | 0.00 | 0.00 | 0.00 | 60 | 1004.0 |
| 20260505074929 | 6 | 305 | 3.2 | 4.8 | 0.00 | 0.00 | 0.00 | 58 | 1004.0 |
| 20260505074429 | 6 | 305 | 3.2 | 4.8 | 0.00 | 0.00 | 0.00 | 57 | 1004.0 |
| 20260505073930 | 6 | 305 | 3.2 | 4.8 | 0.00 | 0.00 | 0.00 | 56 | 1003.9 |
| 20260505073428 | 6 | 305 | 3.2 | 4.8 | 0.00 | 0.00 | 0.00 | 55 | 1003.9 |
| 20260505072930 | 6 | 305 | 3.2 | 4.8 | 0.00 | 0.00 | 0.00 | 54 | 1003.9 |
| 20260505072430 | 6 | 305 | 3.2 | 4.8 | 0.00 | 0.00 | 0.00 | 53 | 1004.0 |
| 20260505071933 | 7 | 305 | 3.2 | 4.8 | 0.00 | 0.00 | 0.00 | 53 | 1003.9 |
| 20260505071432 | 7 | 305 | 3.2 | 4.8 | 0.00 | 0.00 | 0.00 | 53 | 1003.9 |
| 20260505070936 | 7 | 305 | 3.2 | 6.4 | 0.00 | 0.00 | 0.00 | 53 | 1003.9 |
| 20260505070434 | 7 | 305 | 3.2 | 6.4 | 0.00 | 0.00 | 0.00 | 53 | 1004.0 |
| 20260505065931 | 7 | 306 | 3.2 | 4.8 | 0.00 | 0.00 | 0.00 | 53 | 1004.1 |
| 20260505065430 | 7 | 306 | 3.2 | 4.8 | 0.00 | 0.00 | 0.00 | 54 | 1004.1 |
| 20260505064930 | 7 | 306 | 3.2 | 6.4 | 0.00 | 0.00 | 0.00 | 55 | 1004.1 |
| 20260505064620 | 7 | 308 | 4.8 | 6.4 | 0.00 | 0.00 | 0.00 | 52 | 1004.1 |
| 20260505064456 | 7 | 306 | 4.8 | 6.4 | 0.00 | 0.00 | 0.00 | 53 | 1004.1 |
| 20260505063433 | 7 | 308 | 4.8 | 9.7 | 0.00 | 0.00 | 0.00 | 52 | 1004.0 |
| 20260505062933 | 7 | 308 | 4.8 | 9.7 | 0.00 | 0.00 | 0.00 | 51 | 1004.1 |
| 20260505062430 | 7 | 307 | 4.8 | 11.3 | 0.00 | 0.00 | 0.00 | 52 | 1004.2 |
| 20260505061929 | 7 | 307 | 6.4 | 11.3 | 0.00 | 0.00 | 0.00 | 50 | 1004.2 |
| 20260505061434 | 7 | 304 | 6.4 | 11.3 | 0.00 | 0.00 | 0.00 | 50 | 1004.2 |
| 20260505060933 | 7 | 309 | 6.4 | 11.3 | 0.00 | 0.00 | 0.00 | 50 | 1004.2 |
| 20260505060429 | 8 | 302 | 6.4 | 11.3 | 0.00 | 0.00 | 0.00 | 50 | 1004.2 |
| 20260505055930 | 8 | 306 | 6.4 | 11.3 | 0.00 | 0.00 | 0.00 | 50 | 1004.2 |
| 20260505055433 | 8 | 306 | 8.0 | 11.3 | 0.00 | 0.00 | 0.00 | 48 | 1004.2 |
| 20260505055134 | 8 | 306 | 12.9 | 16.1 | 0.00 | 0.00 | 0.00 | 47 | 1004.2 |
| 20260505054959 | 8 | 311 | 9.7 | 16.1 | 0.00 | 0.00 | 0.00 | 48 | 1004.2 |
| 20260505054313 | 8 | 294 | 12.9 | 17.7 | 0.00 | 0.00 | 0.00 | 47 | 1004.2 |
| 20260505054301 | 8 | 305 | 14.5 | 17.7 | 0.00 | 0.00 | 0.00 | 47 | 1004.1 |
| 20260505054031 | 8 | 303 | 12.9 | 16.1 | 0.00 | 0.00 | 0.00 | 48 | 1004.1 |
| 20260505052810 | 8 | 297 | 16.1 | 24.1 | 0.00 | 0.00 | 0.00 | 46 | 1004.0 |
| 20260505052758 | 8 | 298 | 16.1 | 24.1 | 0.00 | 0.00 | 0.00 | 45 | 1003.9 |
| 20260505052527 | 8 | 306 | 14.5 | 19.3 | 0.00 | 0.00 | 0.00 | 46 | 1004.0 |
| 20260505051311 | 9 | 308 | 17.7 | 25.7 | 0.00 | 0.00 | 0.00 | 46 | 1003.7 |
| 20260505051253 | 9 | 311 | 19.3 | 27.4 | 0.00 | 0.00 | 0.00 | 46 | 1003.7 |
| 20260505051018 | 8 | 302 | 16.1 | 22.5 | 0.00 | 0.00 | 0.00 | 46 | 1003.9 |
| 20260505050656 | 9 | 311 | 16.1 | 25.7 | 0.00 | 0.00 | 0.00 | 46 | 1003.9 |
| 20260505041702 | 10 | 325 | 12.9 | 19.3 | 0.00 | 0.00 | 0.00 | 45 | 1003.0 |
| 20260505041510 | 10 | 322 | 14.5 | 19.3 | 0.00 | 0.00 | 0.00 | 45 | 1003.1 |
| 20260505040432 | 10 | 323 | 12.9 | 17.7 | 0.00 | 0.00 | 0.00 | 47 | 1002.9 |
| 20260505035930 | 11 | 322 | 14.5 | 17.7 | 0.00 | 0.00 | 0.00 | 45 | 1002.8 |
| 20260505035428 | 11 | 321 | 11.3 | 17.7 | 0.00 | 0.00 | 0.00 | 46 | 1002.7 |
| 20260505034932 | 11 | 323 | 11.3 | 14.5 | 0.00 | 0.00 | 0.00 | 47 | 1002.7 |
| 20260505034433 | 11 | 306 | 11.3 | 17.7 | 0.00 | 0.00 | 0.00 | 46 | 1002.5 |
| 20260505034139 | 11 | 311 | 16.1 | 20.9 | 0.00 | 0.00 | 0.00 | 45 | 1002.4 |
| 20260505033956 | 11 | 303 | 14.5 | 20.9 | 0.00 | 0.00 | 0.00 | 46 | 1002.5 |
| 20260505032933 | 11 | 308 | 16.1 | 22.5 | 0.00 | 0.00 | 0.00 | 45 | 1002.3 |
| 20260505032429 | 11 | 304 | 17.7 | 24.1 | 0.00 | 0.00 | 0.00 | 45 | 1002.3 |
| 20260505032155 | 11 | 298 | 19.3 | 30.6 | 0.00 | 0.00 | 0.00 | 45 | 1002.3 |
| 20260505032006 | 11 | 304 | 20.9 | 30.6 | 0.00 | 0.00 | 0.00 | 45 | 1002.2 |
| 20260505030929 | 11 | 305 | 19.3 | 25.7 | 0.00 | 0.00 | 0.00 | 45 | 1002.2 |
| 20260505030430 | 11 | 305 | 19.3 | 25.7 | 0.00 | 0.00 | 0.00 | 45 | 1001.8 |
| 20260505025929 | 12 | 310 | 19.3 | 27.4 | 0.00 | 0.00 | 0.00 | 45 | 1001.7 |
| 20260505025632 | 12 | 304 | 16.1 | 25.7 | 0.00 | 0.00 | 0.00 | 45 | 1001.3 |
| 20260505025620 | 12 | 300 | 16.1 | 22.5 | 0.00 | 0.00 | 0.00 | 44 | 1001.2 |
| 20260505025541 | 12 | 309 | 14.5 | 22.5 | 0.00 | 0.00 | 0.00 | 44 | 1001.1 |
| 20260505025440 | 12 | 319 | 19.3 | 29.0 | 0.00 | 0.00 | 0.00 | 44 | 1001.7 |
| 20260505025111 | 12 | 308 | 19.3 | 29.0 | 0.00 | 0.00 | 0.00 | 45 | 1001.4 |
| 20260505022932 | 12 | 299 | 14.5 | 19.3 | 0.00 | 0.00 | 0.00 | 44 | 1001.0 |
| 20260505022712 | 13 | 312 | 16.1 | 20.9 | 0.00 | 0.00 | 0.00 | 44 | 1000.7 |
| 20260505022509 | 13 | 301 | 14.5 | 19.3 | 0.00 | 0.00 | 0.00 | 44 | 1000.9 |
| 20260505021428 | 13 | 306 | 16.1 | 24.1 | 0.00 | 0.00 | 0.00 | 43 | 1000.6 |
| 20260505020929 | 13 | 297 | 17.7 | 24.1 | 0.00 | 0.00 | 0.00 | 43 | 1000.5 |
| 20260505020634 | 13 | 309 | 17.7 | 24.1 | 0.00 | 0.00 | 0.00 | 42 | 1000.2 |
| 20260505020501 | 13 | 313 | 17.7 | 24.1 | 0.00 | 0.00 | 0.00 | 42 | 1000.5 |
| 20260505015433 | 13 | 313 | 16.1 | 22.5 | 0.00 | 0.00 | 0.00 | 43 | 1000.1 |
| 20260505014929 | 13 | 309 | 16.1 | 22.5 | 0.00 | 0.00 | 0.00 | 41 | 1000.0 |
| 20260505014428 | 13 | 314 | 14.5 | 22.5 | 0.00 | 0.00 | 0.00 | 41 | 999.9 |
| 20260505014021 | 14 | 302 | 16.1 | 24.1 | 0.00 | 0.00 | 0.00 | 41 | 999.5 |
| 20260505013934 | 13 | 315 | 14.5 | 20.9 | 0.00 | 0.00 | 0.00 | 41 | 999.8 |
| 20260505013556 | 13 | 311 | 14.5 | 20.9 | 0.00 | 0.00 | 0.00 | 41 | 999.7 |
| 20260505013005 | 14 | 306 | 14.5 | 19.3 | 0.00 | 0.00 | 0.00 | 41 | 999.5 |
| 20260505011928 | 14 | 313 | 17.7 | 24.1 | 0.00 | 0.00 | 0.00 | 40 | 999.4 |
| 20260505011429 | 14 | 302 | 17.7 | 24.1 | 0.00 | 0.00 | 0.00 | 40 | 999.3 |
| 20260505010930 | 14 | 304 | 17.7 | 27.4 | 0.00 | 0.00 | 0.00 | 41 | 999.3 |
| 20260505010430 | 14 | 312 | 16.1 | 27.4 | 0.00 | 0.00 | 0.00 | 39 | 999.2 |
| 20260505005935 | 14 | 303 | 16.1 | 24.1 | 0.00 | 0.00 | 0.00 | 41 | 999.3 |
| 20260505005431 | 15 | 308 | 14.5 | 24.1 | 0.00 | 0.00 | 0.00 | 40 | 999.2 |
| 20260505004930 | 15 | 315 | 16.1 | 22.5 | 0.00 | 0.00 | 0.00 | 39 | 999.2 |
| 20260505004433 | 15 | 304 | 14.5 | 20.9 | 0.00 | 0.00 | 0.00 | 40 | 999.2 |
| 20260505003932 | 15 | 302 | 12.9 | 19.3 | 0.00 | 0.00 | 0.00 | 40 | 999.2 |
| 20260505003434 | 15 | 296 | 12.9 | 17.7 | 0.00 | 0.00 | 0.00 | 41 | 999.0 |
| 20260505002930 | 15 | 297 | 11.3 | 17.7 | 0.00 | 0.00 | 0.00 | 42 | 999.0 |
| 20260505002432 | 15 | 307 | 9.7 | 14.5 | 0.00 | 0.00 | 0.00 | 43 | 999.0 |
| 20260505001935 | 15 | 292 | 11.3 | 17.7 | 0.00 | 0.00 | 0.00 | 42 | 998.9 |
| 20260505001430 | 15 | 296 | 11.3 | 17.7 | 0.00 | 0.00 | 0.00 | 41 | 998.8 |
| 20260505000935 | 15 | 297 | 12.9 | 20.9 | 0.00 | 0.00 | 0.00 | 42 | 998.7 |
| 20260505000434 | 15 | 298 | 16.1 | 22.5 | 0.00 | 0.00 | 0.00 | 40 | 998.7 |
| 20260504235931 | 15 | 309 | 17.7 | 22.5 | 0.00 | 0.00 | 0.00 | 39 | 998.6 |
| 20260504235431 | 16 | 306 | 17.7 | 25.7 | 0.00 | 0.00 | 0.00 | 40 | 998.7 |
| 20260504235227 | 16 | 310 | 16.1 | 24.1 | 0.00 | 0.00 | 0.00 | 37 | 998.5 |
| 20260504235000 | 16 | 305 | 19.3 | 25.7 | 0.00 | 0.00 | 0.00 | 37 | 998.6 |
| 20260504233920 | 16 | 306 | 16.1 | 24.1 | 0.00 | 0.00 | 0.00 | 37 | 998.5 |
| 20260504233418 | 16 | 290 | 19.3 | 27.4 | 0.00 | 0.00 | 0.00 | 35 | 998.4 |
| 20260504233149 | 17 | 289 | 19.3 | 27.4 | 0.00 | 0.00 | 0.00 | 33 | 998.2 |
| 20260504232955 | 16 | 294 | 20.9 | 27.4 | 0.00 | 0.00 | 0.00 | 34 | 998.3 |
| 20260504232025 | 17 | 316 | 14.5 | 27.4 | 0.00 | 0.00 | 0.00 | 33 | 997.7 |
| 20260504231929 | 17 | 295 | 19.3 | 27.4 | 0.00 | 0.00 | 0.00 | 31 | 998.2 |
| 20260504231549 | 17 | 298 | 17.7 | 24.1 | 0.00 | 0.00 | 0.00 | 32 | 998.1 |
| 20260504230957 | 17 | 306 | 17.7 | 27.4 | 0.00 | 0.00 | 0.00 | 33 | 997.9 |
| 20260504225917 | 17 | 302 | 12.9 | 20.9 | 0.00 | 0.00 | 0.00 | 35 | 997.7 |
| 20260504225421 | 17 | 284 | 12.9 | 19.3 | 0.00 | 0.00 | 0.00 | 33 | 997.6 |
| 20260504225215 | 17 | 311 | 14.5 | 20.9 | 0.00 | 0.00 | 0.00 | 34 | 997.6 |
| 20260504224947 | 17 | 290 | 12.9 | 17.7 | 0.00 | 0.00 | 0.00 | 34 | 997.6 |